Location: Newark
(58.8333°N, 23.5833°E)
Time: 05:21:19
(UTC+00:00)

Explorer 7 - Pass Details

Date: 21 November 2019
Orbit: 485 x 680 km, 50.3° (Epoch: 05 December)

Event Time Altitude Azimuth Distance (km) Brightness Sun altitude
Rises 21:43:15 0° 207° (SSW) 2,953 - -50.8°
Reaches altitude 10° 21:46:33 10° 183° (S) 2,009 - -50.9°
Maximum altitude 21:49:03 15° 150° (SSE) 1,699 - -51.0°
Drops below altitude 10° 21:51:29 10° 117° (ESE) 1,948 - -51.0°
Sets 21:54:36 0° 93° (E) 2,806 - -51.0°
